Time,TemperatureF,DewpointF,PressureIn,WindDirection,WindDirectionDegrees,WindSpeedMPH,WindSpeedGustMPH,Humidity,HourlyPrecipIn,Conditions,Clouds,dailyrainin,SoftwareType,DateUTC
2013-09-05 00:01:00,60.2,57.6,29.87,SSW,213,0.0,0.0,91,0.00,,CLR,0.00,VWS V13.01,2013-09-05 04:01:00,
2013-09-05 00:02:00,60.1,57.5,29.87,SSW,213,0.0,0.0,91,0.00,,CLR,0.00,VWS V13.01,2013-09-05 04:02:00,
2013-09-05 00:05:00,60.0,57.4,29.87,SSW,213,0.0,0.0,91,0.00,,CLR,0.00,VWS V13.01,2013-09-05 04:05:00,
2013-09-05 00:10:00,59.8,57.2,29.87,SSW,213,0.0,0.0,91,0.00,,CLR,0.00,VWS V13.01,2013-09-05 04:10:00,
2013-09-05 00:15:00,59.7,57.1,29.87,SSW,213,0.0,0.0,91,0.00,,CLR,0.00,VWS V13.01,2013-09-05 04:15:00,
2013-09-05 00:20:00,59.6,57.3,29.87,SSW,213,0.0,0.0,92,0.00,,CLR,0.00,VWS V13.01,2013-09-05 04:20:00,
2013-09-05 00:25:00,59.4,57.1,29.87,SSW,213,0.0,0.0,92,0.00,,CLR,0.00,VWS V13.01,2013-09-05 04:25:00,
2013-09-05 00:30:00,59.4,57.1,29.87,SSW,213,0.0,0.0,92,0.00,,CLR,0.00,VWS V13.01,2013-09-05 04:30:00,
2013-09-05 00:35:00,59.3,57.3,29.87,SSW,213,0.0,0.0,93,0.00,,CLR,0.00,VWS V13.01,2013-09-05 04:35:00,
2013-09-05 00:40:00,59.2,57.2,29.86,SSW,213,0.0,0.0,93,0.00,,CLR,0.00,VWS V13.01,2013-09-05 04:40:00,
2013-09-05 00:45:00,59.2,57.5,29.86,SSW,213,0.0,0.0,94,0.00,,CLR,0.00,VWS V13.01,2013-09-05 04:45:00,
2013-09-05 00:50:00,59.2,57.5,29.86,SSW,213,0.0,1.0,94,0.00,,CLR,0.00,VWS V13.01,2013-09-05 04:50:00,
2013-09-05 00:55:00,59.2,57.5,29.86,SSW,213,0.0,1.0,94,0.00,,CLR,0.00,VWS V13.01,2013-09-05 04:55:00,
2013-09-05 01:01:00,59.2,57.2,29.86,SSW,213,0.0,1.0,93,0.00,,CLR,0.00,VWS V13.01,2013-09-05 05:01:00,
2013-09-05 01:06:00,59.2,57.5,29.86,SSW,213,0.0,0.0,94,0.00,,CLR,0.00,VWS V13.01,2013-09-05 05:06:00,
2013-09-05 01:11:00,59.2,57.5,29.86,SSW,213,0.0,0.0,94,0.00,,CLR,0.00,VWS V13.01,2013-09-05 05:11:00,
2013-09-05 01:16:00,59.2,57.5,29.86,SSW,213,0.0,0.0,94,0.00,,CLR,0.00,VWS V13.01,2013-09-05 05:16:00,
2013-09-05 01:21:00,59.1,57.1,29.85,SSW,213,0.0,0.0,93,0.00,,CLR,0.00,VWS V13.01,2013-09-05 05:21:00,
2013-09-05 01:26:00,59.2,57.5,29.85,SSW,213,0.0,0.0,94,0.00,,CLR,0.00,VWS V13.01,2013-09-05 05:26:00,
2013-09-05 01:31:00,59.2,57.5,29.85,SSW,213,0.0,0.0,94,0.00,,CLR,0.00,VWS V13.01,2013-09-05 05:31:00,
2013-09-05 01:36:00,59.2,57.5,29.85,SSW,213,0.0,0.0,94,0.00,,CLR,0.00,VWS V13.01,2013-09-05 05:36:00,
2013-09-05 01:41:00,59.2,57.5,29.85,SSW,213,0.0,0.0,94,0.00,,CLR,0.00,VWS V13.01,2013-09-05 05:41:00,
2013-09-05 01:46:00,59.2,57.5,29.85,SSW,213,0.0,0.0,94,0.00,,CLR,0.00,VWS V13.01,2013-09-05 05:46:00,
2013-09-05 01:52:00,59.2,57.5,29.85,SSW,213,0.0,0.0,94,0.00,,CLR,0.00,VWS V13.01,2013-09-05 05:52:00,
2013-09-05 01:57:00,59.2,57.5,29.85,SSW,213,0.0,0.0,94,0.00,,CLR,0.00,VWS V13.01,2013-09-05 05:57:00,
2013-09-05 02:02:00,59.2,57.5,29.85,SSW,213,0.0,0.0,94,0.00,,CLR,0.00,VWS V13.01,2013-09-05 06:02:00,
2013-09-05 02:07:00,59.1,57.4,29.85,SSW,213,0.0,0.0,94,0.00,,CLR,0.00,VWS V13.01,2013-09-05 06:07:00,
2013-09-05 02:12:00,59.0,57.3,29.85,SSW,213,0.0,0.0,94,0.00,,CLR,0.00,VWS V13.01,2013-09-05 06:12:00,
2013-09-05 02:17:00,59.0,57.3,29.85,SSW,213,0.0,0.0,94,0.00,,CLR,0.00,VWS V13.01,2013-09-05 06:17:00,
2013-09-05 02:22:00,58.9,57.5,29.85,SSW,213,0.0,0.0,95,0.00,,CLR,0.00,VWS V13.01,2013-09-05 06:22:00,
2013-09-05 02:27:00,58.9,57.5,29.85,SSW,213,0.0,0.0,95,0.00,,CLR,0.00,VWS V13.01,2013-09-05 06:27:00,
2013-09-05 02:32:00,58.9,57.5,29.85,SSW,213,0.0,0.0,95,0.00,,CLR,0.00,VWS V13.01,2013-09-05 06:32:00,
2013-09-05 02:38:00,58.9,57.5,29.85,SSW,213,0.0,0.0,95,0.00,,CLR,0.00,VWS V13.01,2013-09-05 06:38:00,
2013-09-05 02:43:00,58.9,57.5,29.85,SSW,213,0.0,0.0,95,0.00,,CLR,0.00,VWS V13.01,2013-09-05 06:43:00,
2013-09-05 02:48:00,59.0,57.6,29.85,SSW,213,0.0,0.0,95,0.00,,CLR,0.00,VWS V13.01,2013-09-05 06:48:00,
2013-09-05 02:53:00,59.0,57.6,29.85,SSW,213,0.0,0.0,95,0.00,,CLR,0.00,VWS V13.01,2013-09-05 06:53:00,
2013-09-05 02:58:00,59.0,57.6,29.85,SSW,213,0.0,0.0,95,0.00,,CLR,0.00,VWS V13.01,2013-09-05 06:58:00,
2013-09-05 03:03:00,59.0,57.6,29.85,SSW,213,0.0,0.0,95,0.00,,CLR,0.00,VWS V13.01,2013-09-05 07:03:00,
2013-09-05 03:08:00,59.0,57.9,29.84,SSW,213,0.0,0.0,96,0.00,,CLR,0.00,VWS V13.01,2013-09-05 07:08:00,
2013-09-05 03:13:00,59.0,57.6,29.84,SSW,213,0.0,0.0,95,0.00,,CLR,0.00,VWS V13.01,2013-09-05 07:13:00,
2013-09-05 03:18:00,59.0,57.9,29.85,SSW,213,0.0,0.0,96,0.00,,CLR,0.00,VWS V13.01,2013-09-05 07:18:00,
2013-09-05 03:24:00,59.0,58.4,29.84,SSW,213,0.0,0.0,98,0.00,,CLR,0.00,VWS V13.01,2013-09-05 07:24:00,
2013-09-05 03:29:00,59.0,57.6,29.85,SSW,213,0.0,0.0,95,0.00,,CLR,0.00,VWS V13.01,2013-09-05 07:29:00,
2013-09-05 03:34:00,59.0,57.9,29.84,SSW,213,1.0,1.0,96,0.00,,CLR,0.00,VWS V13.01,2013-09-05 07:34:00,
2013-09-05 03:39:00,59.0,57.9,29.85,SSW,213,0.0,1.0,96,0.00,,CLR,0.00,VWS V13.01,2013-09-05 07:39:00,
2013-09-05 03:44:00,59.0,57.9,29.84,SSW,213,0.0,1.0,96,0.00,,CLR,0.00,VWS V13.01,2013-09-05 07:44:00,
2013-09-05 03:49:00,59.1,58.0,29.84,SSW,213,0.0,1.0,96,0.00,,OVC120,0.00,VWS V13.01,2013-09-05 07:49:00,
2013-09-05 03:54:00,59.1,58.0,29.84,SSW,213,0.0,1.0,96,0.00,,OVC120,0.00,VWS V13.01,2013-09-05 07:54:00,
2013-09-05 03:59:00,59.1,58.0,29.84,SSW,213,0.0,1.0,96,0.00,,OVC120,0.00,VWS V13.01,2013-09-05 07:59:00,
2013-09-05 04:04:00,59.2,58.1,29.84,SSW,213,0.0,0.0,96,0.00,,OVC120,0.00,VWS V13.01,2013-09-05 08:04:00,
2013-09-05 04:09:00,59.2,58.1,29.83,SSW,213,0.0,0.0,96,0.00,,OVC120,0.00,VWS V13.01,2013-09-05 08:09:00,
2013-09-05 04:15:00,59.4,58.5,29.83,SSW,213,0.0,0.0,97,0.00,,OVC120,0.00,VWS V13.01,2013-09-05 08:15:00,
2013-09-05 04:20:00,59.4,58.3,29.83,SSW,213,0.0,1.0,96,0.00,,OVC120,0.00,VWS V13.01,2013-09-05 08:20:00,
2013-09-05 04:25:00,59.5,58.4,29.83,SSW,213,0.0,1.0,96,0.00,,OVC120,0.00,VWS V13.01,2013-09-05 08:25:00,
2013-09-05 04:30:00,59.6,58.5,29.83,SSW,213,0.0,1.0,96,0.00,,OVC120,0.00,VWS V13.01,2013-09-05 08:30:00,
2013-09-05 04:35:00,59.6,58.5,29.83,SSW,213,0.0,1.0,96,0.00,,OVC120,0.00,VWS V13.01,2013-09-05 08:35:00,
2013-09-05 04:40:00,59.8,58.7,29.83,SSW,213,0.0,1.0,96,0.00,,OVC120,0.00,VWS V13.01,2013-09-05 08:40:00,
2013-09-05 04:45:00,59.8,58.7,29.83,SSW,213,0.0,1.0,96,0.00,,FEW120,0.00,VWS V13.01,2013-09-05 08:45:00,
2013-09-05 04:50:00,59.9,58.8,29.83,SSW,213,0.0,1.0,96,0.00,,FEW120,0.00,VWS V13.01,2013-09-05 08:50:00,
2013-09-05 04:55:00,60.0,58.9,29.84,SSW,213,0.0,1.0,96,0.00,,FEW120,0.00,VWS V13.01,2013-09-05 08:55:00,
2013-09-05 05:00:00,60.0,58.9,29.84,SSW,213,0.0,1.0,96,0.00,,FEW120,0.00,VWS V13.01,2013-09-05 09:00:00,
2013-09-05 05:05:00,60.1,59.0,29.85,SSW,213,0.0,0.0,96,0.00,,FEW120,0.00,VWS V13.01,2013-09-05 09:05:00,
2013-09-05 05:11:00,60.2,59.1,29.84,SSW,213,0.0,0.0,96,0.00,,FEW120,0.00,VWS V13.01,2013-09-05 09:11:00,
2013-09-05 05:16:00,60.2,58.8,29.84,SSW,213,0.0,0.0,95,0.00,,FEW120,0.00,VWS V13.01,2013-09-05 09:16:00,
2013-09-05 05:21:00,60.3,58.9,29.84,SSW,213,0.0,0.0,95,0.00,,FEW120,0.00,VWS V13.01,2013-09-05 09:21:00,
2013-09-05 05:26:00,60.3,58.9,29.85,SSW,213,0.0,0.0,95,0.00,,FEW120,0.00,VWS V13.01,2013-09-05 09:26:00,
2013-09-05 05:31:00,60.4,59.3,29.84,SSW,213,0.0,0.0,96,0.00,,FEW120,0.00,VWS V13.01,2013-09-05 09:31:00,
2013-09-05 05:36:00,60.4,59.3,29.84,SSW,213,0.0,0.0,96,0.00,,FEW120,0.00,VWS V13.01,2013-09-05 09:36:00,
2013-09-05 05:41:00,60.5,59.1,29.84,SSW,213,0.0,1.0,95,0.00,,FEW120,0.00,VWS V13.01,2013-09-05 09:41:00,
2013-09-05 05:46:00,60.6,59.2,29.84,SSW,213,0.0,1.0,95,0.00,,SCT120,0.00,VWS V13.01,2013-09-05 09:46:00,
2013-09-05 05:51:00,60.6,59.2,29.84,SSW,213,0.0,1.0,95,0.00,,SCT120,0.00,VWS V13.01,2013-09-05 09:51:00,
2013-09-05 05:56:00,60.6,59.2,29.85,SSW,213,0.0,1.0,95,0.00,,SCT120,0.00,VWS V13.01,2013-09-05 09:56:00,
2013-09-05 06:02:00,60.5,59.1,29.85,SSW,213,0.0,0.0,95,0.00,,SCT120,0.00,VWS V13.01,2013-09-05 10:02:00,
2013-09-05 06:07:00,60.6,59.2,29.85,SSW,213,0.0,0.0,95,0.00,,SCT120,0.00,VWS V13.01,2013-09-05 10:07:00,
2013-09-05 06:12:00,60.6,59.2,29.85,SSW,213,0.0,0.0,95,0.00,,SCT120,0.00,VWS V13.01,2013-09-05 10:12:00,
2013-09-05 06:17:00,60.7,59.3,29.85,SSW,213,0.0,1.0,95,0.00,,SCT120,0.00,VWS V13.01,2013-09-05 10:17:00,
2013-09-05 06:22:00,60.7,59.3,29.85,SSW,213,0.0,1.0,95,0.00,,SCT120,0.00,VWS V13.01,2013-09-05 10:22:00,
2013-09-05 06:27:00,60.8,59.4,29.85,SSW,213,0.0,1.0,95,0.00,,SCT120,0.00,VWS V13.01,2013-09-05 10:27:00,
2013-09-05 06:32:00,60.7,59.3,29.85,SSW,213,0.0,0.0,95,0.00,,SCT120,0.00,VWS V13.01,2013-09-05 10:32:00,
2013-09-05 06:37:00,60.7,59.3,29.85,SSW,213,0.0,0.0,95,0.00,,SCT120,0.00,VWS V13.01,2013-09-05 10:37:00,
2013-09-05 06:42:00,60.8,59.4,29.85,SSW,213,0.0,0.0,95,0.00,,SCT120,0.00,VWS V13.01,2013-09-05 10:42:00,
2013-09-05 06:47:00,60.8,59.4,29.85,SSW,213,0.0,0.0,95,0.00,,SCT110,0.00,VWS V13.01,2013-09-05 10:47:00,
2013-09-05 06:53:00,60.8,59.4,29.85,SSW,213,0.0,0.0,95,0.00,,SCT110,0.00,VWS V13.01,2013-09-05 10:53:00,
2013-09-05 06:58:00,60.9,59.8,29.85,SSW,213,0.0,1.0,96,0.00,,SCT110,0.00,VWS V13.01,2013-09-05 10:58:00,
2013-09-05 07:03:00,61.0,59.6,29.85,SSW,213,0.0,0.0,95,0.00,,SCT110,0.00,VWS V13.01,2013-09-05 11:03:00,
2013-09-05 07:08:00,61.1,59.7,29.85,SSW,213,0.0,0.0,95,0.00,,SCT110,0.00,VWS V13.01,2013-09-05 11:08:00,
2013-09-05 07:13:00,61.1,59.7,29.85,SSW,213,0.0,0.0,95,0.00,,SCT110,0.00,VWS V13.01,2013-09-05 11:13:00,
2013-09-05 07:18:00,61.3,59.9,29.86,SSW,213,0.0,0.0,95,0.00,,SCT110,0.00,VWS V13.01,2013-09-05 11:18:00,
2013-09-05 07:23:00,61.4,60.0,29.86,SSW,213,0.0,0.0,95,0.00,,SCT110,0.00,VWS V13.01,2013-09-05 11:23:00,
2013-09-05 07:28:00,61.5,59.8,29.86,SSW,213,0.0,0.0,94,0.00,,SCT110,0.00,VWS V13.01,2013-09-05 11:28:00,
2013-09-05 07:33:00,61.7,60.0,29.87,SSW,213,0.0,0.0,94,0.00,,SCT110,0.00,VWS V13.01,2013-09-05 11:33:00,
2013-09-05 07:38:00,61.9,60.2,29.87,SSW,213,0.0,0.0,94,0.00,,SCT110,0.00,VWS V13.01,2013-09-05 11:38:00,
2013-09-05 07:43:00,62.0,60.3,29.88,SSW,213,0.0,0.0,94,0.00,,SCT110,0.00,VWS V13.01,2013-09-05 11:43:00,
2013-09-05 07:49:00,62.1,60.4,29.87,SSW,213,0.0,0.0,94,0.00,,BKN120,0.00,VWS V13.01,2013-09-05 11:49:00,
2013-09-05 07:54:00,62.2,60.8,29.88,SSW,213,0.0,0.0,95,0.00,,BKN120,0.00,VWS V13.01,2013-09-05 11:54:00,
2013-09-05 07:59:00,62.3,60.6,29.88,SSW,213,0.0,0.0,94,0.01,,BKN120,0.01,VWS V13.01,2013-09-05 11:59:00,
2013-09-05 08:04:00,62.3,60.8,29.88,SSW,213,0.0,0.0,95,0.01,,BKN120,0.01,VWS V13.01,2013-09-05 12:04:00,
2013-09-05 08:09:00,62.4,61.0,29.88,SSW,213,0.0,0.0,95,0.01,,BKN120,0.01,VWS V13.01,2013-09-05 12:09:00,
2013-09-05 08:14:00,62.3,60.8,29.88,SSW,213,0.0,0.0,95,0.01,,BKN120,0.01,VWS V13.01,2013-09-05 12:14:00,
2013-09-05 08:19:00,62.4,61.2,29.88,SSW,213,0.0,0.0,96,0.01,,BKN120,0.01,VWS V13.01,2013-09-05 12:19:00,
2013-09-05 08:24:00,62.4,61.2,29.88,SSW,213,0.0,0.0,96,0.02,,BKN120,0.02,VWS V13.01,2013-09-05 12:24:00,
2013-09-05 08:29:00,62.4,61.2,29.89,SSW,213,0.0,0.0,96,0.02,,BKN120,0.02,VWS V13.01,2013-09-05 12:29:00,
2013-09-05 08:35:00,62.4,61.2,29.89,SSW,213,0.0,0.0,96,0.02,,BKN120,0.02,VWS V13.01,2013-09-05 12:35:00,
2013-09-05 08:40:00,62.4,61.2,29.90,SSW,213,0.0,0.0,96,0.02,,BKN120,0.02,VWS V13.01,2013-09-05 12:40:00,
2013-09-05 08:45:00,62.4,61.2,29.90,SSW,213,0.0,0.0,96,0.02,,BKN120,0.02,VWS V13.01,2013-09-05 12:45:00,
2013-09-05 08:50:00,62.4,61.5,29.90,SSW,213,0.0,0.0,97,0.02,,BKN120,0.02,VWS V13.01,2013-09-05 12:50:00,
2013-09-05 08:55:00,62.5,61.6,29.90,SSW,213,0.0,0.0,97,0.02,,BKN120,0.02,VWS V13.01,2013-09-05 12:55:00,
2013-09-05 09:00:00,62.6,61.7,29.90,SSW,213,0.0,0.0,97,0.02,,-RA,0.02,VWS V13.01,2013-09-05 13:00:00,
2013-09-05 09:05:00,62.7,61.8,29.91,SSW,213,0.0,0.0,97,0.01,,-RA,0.02,VWS V13.01,2013-09-05 13:05:00,
2013-09-05 09:10:00,62.8,61.9,29.92,SSW,213,0.0,0.0,97,0.01,,-RA,0.02,VWS V13.01,2013-09-05 13:10:00,
2013-09-05 09:15:00,62.8,61.9,29.91,SSW,213,0.0,0.0,97,0.01,,-RA,0.02,VWS V13.01,2013-09-05 13:15:00,
2013-09-05 09:20:00,62.8,61.9,29.92,SSW,213,0.0,0.0,97,0.01,,-RA,0.02,VWS V13.01,2013-09-05 13:20:00,
2013-09-05 09:26:00,62.9,62.0,29.92,SSW,213,0.0,1.0,97,0.01,,-RA,0.02,VWS V13.01,2013-09-05 13:26:00,
2013-09-05 09:31:00,63.0,62.1,29.92,SSW,213,0.0,1.0,97,0.01,,-RA,0.02,VWS V13.01,2013-09-05 13:31:00,
2013-09-05 09:36:00,63.1,62.2,29.92,SSW,213,0.0,1.0,97,0.00,,-RA,0.02,VWS V13.01,2013-09-05 13:36:00,
2013-09-05 09:41:00,63.2,62.3,29.92,NNE,13,0.0,7.0,97,0.00,,-RA,0.02,VWS V13.01,2013-09-05 13:41:00,
2013-09-05 09:46:00,63.1,61.9,29.93,North,9,0.0,7.0,96,0.00,,OVC037,0.02,VWS V13.01,2013-09-05 13:46:00,
2013-09-05 09:51:00,63.0,61.5,29.93,NNW,338,0.0,7.0,95,0.00,,OVC037,0.02,VWS V13.01,2013-09-05 13:51:00,
2013-09-05 09:56:00,62.9,61.5,29.92,North,351,1.0,7.0,95,0.00,,OVC037,0.02,VWS V13.01,2013-09-05 13:56:00,
2013-09-05 10:01:00,62.8,61.3,29.92,NNW,341,0.0,7.0,95,0.00,,OVC037,0.02,VWS V13.01,2013-09-05 14:01:00,
2013-09-05 10:06:00,63.0,61.5,29.92,NNW,341,0.0,2.0,95,0.00,,OVC037,0.02,VWS V13.01,2013-09-05 14:06:00,
2013-09-05 10:11:00,63.2,61.8,29.92,NNW,334,0.0,4.0,95,0.00,,OVC037,0.02,VWS V13.01,2013-09-05 14:11:00,
2013-09-05 10:16:00,63.5,62.0,29.92,NNW,334,0.0,4.0,95,0.00,,OVC037,0.02,VWS V13.01,2013-09-05 14:16:00,
2013-09-05 10:22:00,63.8,62.0,29.92,NW,321,0.0,4.0,94,0.00,,OVC037,0.02,VWS V13.01,2013-09-05 14:22:00,
2013-09-05 10:27:00,64.2,62.4,29.92,NNW,335,0.0,4.0,94,0.00,,OVC037,0.02,VWS V13.01,2013-09-05 14:27:00,
2013-09-05 10:32:00,64.5,62.1,29.93,NE,49,0.0,0.0,92,0.00,,OVC037,0.02,VWS V13.01,2013-09-05 14:32:00,
2013-09-05 10:37:00,64.8,62.4,29.92,NE,49,0.0,1.0,92,0.00,,OVC037,0.02,VWS V13.01,2013-09-05 14:37:00,
2013-09-05 10:42:00,65.1,61.8,29.92,NNE,28,0.0,2.0,89,0.00,,OVC037,0.02,VWS V13.01,2013-09-05 14:42:00,
2013-09-05 10:47:00,65.2,61.2,29.92,NW,326,0.0,2.0,87,0.00,,OVC060,0.02,VWS V13.01,2013-09-05 14:47:00,
2013-09-05 10:52:00,65.3,62.0,29.92,NW,317,2.0,3.0,89,0.00,,OVC060,0.02,VWS V13.01,2013-09-05 14:52:00,
2013-09-05 10:57:00,65.4,62.1,29.93,NW,317,0.0,3.0,89,0.00,,OVC060,0.02,VWS V13.01,2013-09-05 14:57:00,
2013-09-05 11:02:00,65.7,62.4,29.93,NW,317,0.0,0.0,89,0.00,,OVC060,0.02,VWS V13.01,2013-09-05 15:02:00,
2013-09-05 11:07:00,66.1,62.5,29.93,NW,317,0.0,0.0,88,0.00,,OVC060,0.02,VWS V13.01,2013-09-05 15:07:00,
2013-09-05 11:12:00,66.4,62.4,29.93,NW,315,0.0,1.0,87,0.00,,OVC060,0.02,VWS V13.01,2013-09-05 15:12:00,
2013-09-05 11:17:00,66.5,60.8,29.93,NNW,334,0.0,6.0,82,0.00,,OVC060,0.02,VWS V13.01,2013-09-05 15:17:00,
2013-09-05 11:23:00,66.5,60.2,29.94,WNW,296,0.0,7.0,80,0.00,,OVC060,0.02,VWS V13.01,2013-09-05 15:23:00,
2013-09-05 11:28:00,66.6,61.6,29.94,WNW,296,0.0,7.0,84,0.00,,OVC060,0.02,VWS V13.01,2013-09-05 15:28:00,
2013-09-05 11:33:00,67.0,61.7,29.94,NW,317,6.0,6.0,83,0.00,,OVC060,0.02,VWS V13.01,2013-09-05 15:33:00,
2013-09-05 11:38:00,67.4,62.1,29.94,NNW,340,4.0,7.0,83,0.00,,OVC060,0.02,VWS V13.01,2013-09-05 15:38:00,
2013-09-05 11:43:00,67.6,60.5,29.94,WNW,288,4.0,7.0,78,0.00,,OVC060,0.02,VWS V13.01,2013-09-05 15:43:00,
2013-09-05 11:48:00,67.8,61.4,29.94,NW,326,2.0,7.0,80,0.00,,CLR,0.02,VWS V13.01,2013-09-05 15:48:00,
2013-09-05 11:53:00,68.0,60.2,29.94,NNE,32,1.0,7.0,76,0.00,,CLR,0.02,VWS V13.01,2013-09-05 15:53:00,
2013-09-05 11:58:00,68.0,60.2,29.95,North,9,0.0,7.0,76,0.00,,CLR,0.02,VWS V13.01,2013-09-05 15:58:00,
2013-09-05 12:03:00,68.0,59.4,29.95,NW,309,1.0,7.0,74,0.00,,CLR,0.02,VWS V13.01,2013-09-05 16:03:00,
2013-09-05 12:08:00,68.0,58.3,29.95,NNE,14,0.0,10.0,71,0.00,,CLR,0.02,VWS V13.01,2013-09-05 16:08:00,
2013-09-05 12:14:00,68.0,57.9,29.95,NNE,20,3.0,10.0,70,0.00,,CLR,0.02,VWS V13.01,2013-09-05 16:14:00,
2013-09-05 12:19:00,68.1,58.3,29.95,North,10,1.0,10.0,71,0.00,,CLR,0.02,VWS V13.01,2013-09-05 16:19:00,
2013-09-05 12:24:00,68.1,57.6,29.95,NNW,333,0.0,10.0,69,0.00,,CLR,0.02,VWS V13.01,2013-09-05 16:24:00,
2013-09-05 12:29:00,68.2,57.7,29.95,NNW,327,1.0,10.0,69,0.00,,CLR,0.02,VWS V13.01,2013-09-05 16:29:00,
2013-09-05 12:34:00,68.2,56.0,29.95,NW,325,0.0,10.0,65,0.00,,CLR,0.02,VWS V13.01,2013-09-05 16:34:00,
2013-09-05 12:39:00,68.1,55.9,29.95,WNW,302,2.0,10.0,65,0.00,,CLR,0.02,VWS V13.01,2013-09-05 16:39:00,
2013-09-05 12:44:00,68.3,54.8,29.95,NW,304,3.0,10.0,62,0.00,,CLR,0.02,VWS V13.01,2013-09-05 16:44:00,
2013-09-05 12:49:00,68.3,56.1,29.95,NNE,28,2.0,10.0,65,0.00,,CLR,0.02,VWS V13.01,2013-09-05 16:49:00,
2013-09-05 12:54:00,68.4,51.1,29.95,NNW,346,0.0,10.0,54,0.00,,CLR,0.02,VWS V13.01,2013-09-05 16:54:00,
2013-09-05 13:00:00,68.4,54.0,29.95,North,355,0.0,12.0,60,0.00,,CLR,0.02,VWS V13.01,2013-09-05 17:00:00,
2013-09-05 13:05:00,68.3,52.5,29.95,NNW,335,2.0,4.0,57,0.00,,CLR,0.02,VWS V13.01,2013-09-05 17:05:00,
2013-09-05 13:10:00,68.4,52.6,29.95,NW,312,0.0,4.0,57,0.00,,CLR,0.02,VWS V13.01,2013-09-05 17:10:00,
2013-09-05 13:15:00,68.5,51.7,29.95,NW,323,0.0,4.0,55,0.00,,CLR,0.02,VWS V13.01,2013-09-05 17:15:00,
2013-09-05 13:20:00,68.6,52.8,29.95,North,355,0.0,4.0,57,0.00,,CLR,0.02,VWS V13.01,2013-09-05 17:20:00,
2013-09-05 13:25:00,68.6,52.3,29.94,NNW,334,0.0,4.0,56,0.00,,CLR,0.02,VWS V13.01,2013-09-05 17:25:00,
2013-09-05 13:30:00,68.9,54.0,29.95,NNW,335,0.0,4.0,59,0.00,,CLR,0.02,VWS V13.01,2013-09-05 17:30:00,
2013-09-05 13:35:00,69.2,53.3,29.95,NNW,339,0.0,1.0,57,0.00,,CLR,0.02,VWS V13.01,2013-09-05 17:35:00,
2013-09-05 13:40:00,69.5,54.1,29.94,WNW,290,2.0,5.0,58,0.00,,CLR,0.02,VWS V13.01,2013-09-05 17:40:00,
2013-09-05 13:45:00,69.7,54.3,29.94,NNW,329,0.0,5.0,58,0.00,,BKN110,0.02,VWS V13.01,2013-09-05 17:45:00,
2013-09-05 13:51:00,69.9,53.5,29.94,NNW,329,0.0,5.0,56,0.00,,BKN110,0.02,VWS V13.01,2013-09-05 17:51:00,
2013-09-05 13:56:00,70.1,53.7,29.94,WNW,298,1.0,5.0,56,0.00,,BKN110,0.02,VWS V13.01,2013-09-05 17:56:00,
2013-09-05 14:01:00,70.3,53.4,29.94,WNW,298,0.0,5.0,55,0.00,,BKN110,0.02,VWS V13.01,2013-09-05 18:01:00,
2013-09-05 14:06:00,70.6,53.2,29.94,North,355,2.0,6.0,54,0.00,,BKN110,0.02,VWS V13.01,2013-09-05 18:06:00,
2013-09-05 14:11:00,70.7,51.7,29.94,NW,306,1.0,9.0,51,0.00,,BKN110,0.02,VWS V13.01,2013-09-05 18:11:00,
2013-09-05 14:16:00,70.8,52.3,29.94,NE,34,0.0,9.0,52,0.00,,BKN110,0.02,VWS V13.01,2013-09-05 18:16:00,
2013-09-05 14:21:00,70.9,52.9,29.94,North,10,0.0,9.0,53,0.00,,BKN110,0.02,VWS V13.01,2013-09-05 18:21:00,
2013-09-05 14:26:00,71.0,49.2,29.95,West,273,0.0,11.0,46,0.00,,BKN110,0.02,VWS V13.01,2013-09-05 18:26:00,
2013-09-05 14:31:00,71.1,48.1,29.95,WSW,257,0.0,2.0,44,0.00,,BKN110,0.02,VWS V13.01,2013-09-05 18:31:00,
2013-09-05 14:37:00,71.2,48.8,29.95,NW,312,1.0,6.0,45,0.00,,BKN110,0.02,VWS V13.01,2013-09-05 18:37:00,
2013-09-05 14:42:00,71.1,48.7,29.95,North,350,0.0,6.0,45,0.00,,BKN110,0.02,VWS V13.01,2013-09-05 18:42:00,
2013-09-05 14:47:00,70.8,47.8,29.95,North,5,2.0,6.0,44,0.00,,SCT110,0.02,VWS V13.01,2013-09-05 18:47:00,
2013-09-05 14:52:00,70.6,47.0,29.95,North,11,0.0,6.0,43,0.00,,SCT110,0.02,VWS V13.01,2013-09-05 18:52:00,
2013-09-05 14:57:00,70.4,48.7,29.95,North,11,0.0,6.0,46,0.00,,SCT110,0.02,VWS V13.01,2013-09-05 18:57:00,
2013-09-05 15:02:00,70.6,51.1,29.96,North,11,0.0,0.0,50,0.00,,SCT110,0.02,VWS V13.01,2013-09-05 19:02:00,
2013-09-05 15:07:00,70.6,46.4,29.95,NNW,329,1.0,9.0,42,0.00,,SCT110,0.02,VWS V13.01,2013-09-05 19:07:00,
2013-09-05 15:12:00,70.5,47.0,29.96,WNW,297,0.0,9.0,43,0.00,,SCT110,0.02,VWS V13.01,2013-09-05 19:12:00,
2013-09-05 15:17:00,70.5,47.6,29.96,WNW,297,0.0,9.0,44,0.00,,SCT110,0.02,VWS V13.01,2013-09-05 19:17:00,
2013-09-05 15:23:00,70.6,50.0,29.96,WNW,297,0.0,9.0,48,0.00,,SCT110,0.02,VWS V13.01,2013-09-05 19:23:00,
2013-09-05 15:28:00,70.9,49.7,29.96,North,355,1.0,9.0,47,0.00,,SCT110,0.02,VWS V13.01,2013-09-05 19:28:00,
2013-09-05 15:33:00,71.2,48.2,29.96,NNW,346,0.0,1.0,44,0.00,,SCT110,0.02,VWS V13.01,2013-09-05 19:33:00,
2013-09-05 15:38:00,71.5,49.1,29.96,NW,304,0.0,2.0,45,0.00,,SCT110,0.02,VWS V13.01,2013-09-05 19:38:00,
2013-09-05 15:43:00,71.9,49.4,29.96,NW,304,0.0,2.0,45,0.00,,SCT110,0.02,VWS V13.01,2013-09-05 19:43:00,
2013-09-05 15:48:00,72.2,47.9,29.96,NW,304,0.0,2.0,42,0.00,,BKN110,0.02,VWS V13.01,2013-09-05 19:48:00,
2013-09-05 15:53:00,72.5,50.0,29.96,NW,304,0.0,2.0,45,0.00,,BKN110,0.02,VWS V13.01,2013-09-05 19:53:00,
2013-09-05 15:58:00,72.7,50.2,29.96,SSW,198,1.0,2.0,45,0.00,,BKN110,0.02,VWS V13.01,2013-09-05 19:58:00,
2013-09-05 16:04:00,72.8,49.6,29.96,NNW,340,0.0,1.0,44,0.00,,BKN110,0.02,VWS V13.01,2013-09-05 20:04:00,
2013-09-05 16:09:00,73.0,48.6,29.96,NNW,336,0.0,2.0,42,0.00,,BKN110,0.02,VWS V13.01,2013-09-05 20:09:00,
2013-09-05 16:14:00,73.0,48.6,29.96,North,355,1.0,3.0,42,0.00,,BKN110,0.02,VWS V13.01,2013-09-05 20:14:00,
2013-09-05 16:19:00,72.8,50.2,29.96,WNW,287,0.0,3.0,45,0.00,,BKN110,0.02,VWS V13.01,2013-09-05 20:19:00,
2013-09-05 16:24:00,72.4,50.5,29.96,NNE,32,0.0,3.0,46,0.00,,BKN110,0.02,VWS V13.01,2013-09-05 20:24:00,
2013-09-05 16:29:00,71.7,49.8,29.96,NNE,14,1.0,3.0,46,0.00,,BKN110,0.02,VWS V13.01,2013-09-05 20:29:00,
2013-09-05 16:34:00,71.0,49.2,29.96,NW,321,2.0,2.0,46,0.00,,BKN110,0.02,VWS V13.01,2013-09-05 20:34:00,
2013-09-05 16:39:00,70.7,50.1,29.96,NNW,338,0.0,2.0,48,0.00,,BKN110,0.02,VWS V13.01,2013-09-05 20:39:00,
2013-09-05 16:45:00,70.6,47.0,29.96,NNW,339,0.0,4.0,43,0.00,,BKN110,0.02,VWS V13.01,2013-09-05 20:45:00,
2013-09-05 16:50:00,70.6,48.8,29.96,NNW,331,0.0,4.0,46,0.00,,BKN110,0.02,VWS V13.01,2013-09-05 20:50:00,
2013-09-05 16:55:00,70.5,48.2,29.96,NNW,337,0.0,6.0,45,0.00,,BKN110,0.02,VWS V13.01,2013-09-05 20:55:00,
2013-09-05 17:00:00,70.4,50.3,29.96,NNW,337,0.0,6.0,49,0.00,,BKN110,0.02,VWS V13.01,2013-09-05 21:00:00,
2013-09-05 17:05:00,70.2,47.9,29.96,NW,325,0.0,4.0,45,0.00,,BKN110,0.02,VWS V13.01,2013-09-05 21:05:00,
2013-09-05 17:10:00,70.0,49.4,29.97,NW,304,0.0,4.0,48,0.00,,BKN110,0.02,VWS V13.01,2013-09-05 21:10:00,
2013-09-05 17:15:00,69.7,48.6,29.97,NW,304,1.0,4.0,47,0.00,,BKN110,0.02,VWS V13.01,2013-09-05 21:15:00,
2013-09-05 17:20:00,69.4,47.2,29.97,North,5,0.0,4.0,45,0.00,,BKN110,0.02,VWS V13.01,2013-09-05 21:20:00,
2013-09-05 17:26:00,69.1,49.2,29.97,North,5,0.0,4.0,49,0.00,,BKN110,0.02,VWS V13.01,2013-09-05 21:26:00,
2013-09-05 17:31:00,68.7,48.2,29.97,WNW,295,2.0,4.0,48,0.00,,BKN110,0.02,VWS V13.01,2013-09-05 21:31:00,
2013-09-05 17:36:00,68.2,47.2,29.98,NW,306,0.0,4.0,47,0.00,,BKN110,0.02,VWS V13.01,2013-09-05 21:36:00,
2013-09-05 17:41:00,67.8,49.0,29.98,NW,304,0.0,4.0,51,0.00,,BKN110,0.02,VWS V13.01,2013-09-05 21:41:00,
2013-09-05 17:46:00,67.5,49.3,29.98,NNE,22,0.0,4.0,52,0.00,,BKN070,0.02,VWS V13.01,2013-09-05 21:46:00,
2013-09-05 17:51:00,67.3,49.6,29.98,NNE,21,0.0,4.0,53,0.00,,BKN070,0.02,VWS V13.01,2013-09-05 21:51:00,
2013-09-05 17:56:00,67.2,48.5,29.98,NNW,331,0.0,4.0,51,0.00,,BKN070,0.02,VWS V13.01,2013-09-05 21:56:00,
2013-09-05 18:01:00,67.1,47.9,29.99,NNE,28,0.0,4.0,50,0.00,,BKN070,0.02,VWS V13.01,2013-09-05 22:01:00,
2013-09-05 18:06:00,67.1,48.4,29.99,NW,307,0.0,4.0,51,0.00,,BKN070,0.02,VWS V13.01,2013-09-05 22:06:00,
2013-09-05 18:11:00,67.0,48.3,29.99,NNE,17,0.0,4.0,51,0.00,,BKN070,0.02,VWS V13.01,2013-09-05 22:11:00,
2013-09-05 18:16:00,66.9,48.2,29.99,NNW,334,0.0,4.0,51,0.00,,BKN070,0.02,VWS V13.01,2013-09-05 22:16:00,
2013-09-05 18:22:00,66.7,47.0,30.00,NW,304,0.0,5.0,49,0.00,,BKN070,0.02,VWS V13.01,2013-09-05 22:22:00,
2013-09-05 18:27:00,66.6,47.4,30.00,NW,304,0.0,5.0,50,0.00,,BKN070,0.02,VWS V13.01,2013-09-05 22:27:00,
2013-09-05 18:32:00,66.4,47.2,30.00,NW,325,0.0,0.0,50,0.00,,BKN070,0.02,VWS V13.01,2013-09-05 22:32:00,
2013-09-05 18:37:00,66.2,48.1,30.00,NW,325,0.0,0.0,52,0.00,,BKN070,0.02,VWS V13.01,2013-09-05 22:37:00,
2013-09-05 18:42:00,65.9,46.8,30.00,NW,325,0.0,1.0,50,0.00,,BKN070,0.02,VWS V13.01,2013-09-05 22:42:00,
2013-09-05 18:47:00,65.5,46.9,30.00,NW,321,0.0,2.0,51,0.00,,BKN080,0.02,VWS V13.01,2013-09-05 22:47:00,
2013-09-05 18:52:00,65.1,47.1,30.01,North,5,0.0,2.0,52,0.00,,BKN080,0.02,VWS V13.01,2013-09-05 22:52:00,
2013-09-05 18:57:00,64.7,46.2,30.01,North,5,0.0,2.0,51,0.00,,BKN080,0.02,VWS V13.01,2013-09-05 22:57:00,
2013-09-05 19:02:00,64.3,46.8,30.01,North,5,0.0,0.0,53,0.00,,BKN080,0.02,VWS V13.01,2013-09-05 23:02:00,
2013-09-05 19:07:00,63.9,47.0,30.01,North,5,0.0,0.0,54,0.00,,BKN080,0.02,VWS V13.01,2013-09-05 23:07:00,
2013-09-05 19:13:00,63.4,46.0,30.01,North,5,0.0,0.0,53,0.00,,BKN080,0.02,VWS V13.01,2013-09-05 23:13:00,
2013-09-05 19:18:00,63.0,51.9,30.01,North,5,0.0,0.0,67,0.00,,BKN080,0.02,VWS V13.01,2013-09-05 23:18:00,
2013-09-05 19:23:00,62.4,50.5,30.02,North,5,0.0,0.0,65,0.00,,BKN080,0.02,VWS V13.01,2013-09-05 23:23:00,
2013-09-05 19:28:00,61.8,49.9,30.02,North,5,0.0,0.0,65,0.00,,BKN080,0.02,VWS V13.01,2013-09-05 23:28:00,
2013-09-05 19:33:00,61.3,51.1,30.02,North,5,0.0,0.0,69,0.00,,BKN080,0.02,VWS V13.01,2013-09-05 23:33:00,
2013-09-05 19:38:00,60.7,51.2,30.03,North,5,0.0,0.0,71,0.00,,BKN080,0.02,VWS V13.01,2013-09-05 23:38:00,
2013-09-05 19:43:00,60.1,49.9,30.03,North,5,0.0,0.0,69,0.00,,BKN080,0.02,VWS V13.01,2013-09-05 23:43:00,
2013-09-05 19:48:00,59.6,50.2,30.03,North,5,0.0,0.0,71,0.00,,SCT080,0.02,VWS V13.01,2013-09-05 23:48:00,
2013-09-05 19:53:00,59.0,49.6,30.03,North,5,0.0,0.0,71,0.00,,SCT080,0.02,VWS V13.01,2013-09-05 23:53:00,
2013-09-05 19:58:00,58.5,49.5,30.04,North,5,0.0,0.0,72,0.00,,SCT080,0.02,VWS V13.01,2013-09-05 23:58:00,
2013-09-05 20:03:00,58.0,49.4,30.04,North,5,0.0,0.0,73,0.00,,SCT080,0.02,VWS V13.01,2013-09-06 00:03:00,
2013-09-05 20:08:00,57.6,49.8,30.04,North,5,0.0,0.0,75,0.00,,SCT080,0.02,VWS V13.01,2013-09-06 00:08:00,
2013-09-05 20:13:00,57.2,50.1,30.04,North,5,0.0,0.0,77,0.00,,SCT080,0.02,VWS V13.01,2013-09-06 00:13:00,
2013-09-05 20:19:00,56.7,49.2,30.04,North,5,0.0,0.0,76,0.00,,SCT080,0.02,VWS V13.01,2013-09-06 00:19:00,
2013-09-05 20:24:00,56.3,49.2,30.04,North,5,0.0,0.0,77,0.00,,SCT080,0.02,VWS V13.01,2013-09-06 00:24:00,
2013-09-05 20:29:00,55.9,49.2,30.05,North,5,0.0,0.0,78,0.00,,SCT080,0.02,VWS V13.01,2013-09-06 00:29:00,
2013-09-05 20:34:00,55.5,49.1,30.05,North,5,0.0,0.0,79,0.00,,CLR,0.02,VWS V13.01,2013-09-06 00:34:00,
2013-09-05 20:39:00,55.1,49.0,30.05,North,5,0.0,0.0,80,0.00,,CLR,0.02,VWS V13.01,2013-09-06 00:39:00,
2013-09-05 20:44:00,54.8,49.1,30.06,North,5,0.0,0.0,81,0.00,,CLR,0.02,VWS V13.01,2013-09-06 00:44:00,
2013-09-05 20:49:00,54.5,49.5,30.06,North,5,0.0,0.0,83,0.00,,CLR,0.02,VWS V13.01,2013-09-06 00:49:00,
2013-09-05 20:54:00,54.3,49.6,30.06,North,5,0.0,0.0,84,0.00,,CLR,0.02,VWS V13.01,2013-09-06 00:54:00,
2013-09-05 20:59:00,54.0,49.6,30.06,North,5,0.0,0.0,85,0.00,,CLR,0.02,VWS V13.01,2013-09-06 00:59:00,
2013-09-05 21:04:00,53.8,49.7,30.06,North,5,0.0,0.0,86,0.00,,CLR,0.02,VWS V13.01,2013-09-06 01:04:00,
2013-09-05 21:10:00,53.5,49.4,30.06,North,5,0.0,0.0,86,0.00,,CLR,0.02,VWS V13.01,2013-09-06 01:10:00,
2013-09-05 21:15:00,53.2,49.4,30.06,North,5,0.0,0.0,87,0.00,,CLR,0.02,VWS V13.01,2013-09-06 01:15:00,
2013-09-05 21:20:00,52.9,49.1,30.07,North,5,0.0,0.0,87,0.00,,CLR,0.02,VWS V13.01,2013-09-06 01:20:00,
2013-09-05 21:25:00,52.7,49.2,30.07,North,5,0.0,0.0,88,0.00,,CLR,0.02,VWS V13.01,2013-09-06 01:25:00,
2013-09-05 21:30:00,52.4,49.0,30.07,North,5,0.0,0.0,88,0.00,,CLR,0.02,VWS V13.01,2013-09-06 01:30:00,
2013-09-05 21:35:00,52.1,48.7,30.07,North,5,0.0,0.0,88,0.00,,CLR,0.02,VWS V13.01,2013-09-06 01:35:00,
2013-09-05 21:40:00,51.8,48.4,30.07,North,5,0.0,0.0,88,0.00,,CLR,0.02,VWS V13.01,2013-09-06 01:40:00,
2013-09-05 21:45:00,51.4,48.0,30.08,North,5,0.0,0.0,88,0.00,,CLR,0.02,VWS V13.01,2013-09-06 01:45:00,
2013-09-05 21:50:00,51.2,47.8,30.08,North,5,0.0,0.0,88,0.00,,CLR,0.02,VWS V13.01,2013-09-06 01:50:00,
2013-09-05 21:55:00,51.0,47.6,30.08,North,5,0.0,0.0,88,0.00,,CLR,0.02,VWS V13.01,2013-09-06 01:55:00,
2013-09-05 22:00:00,50.8,47.4,30.08,North,5,0.0,0.0,88,0.00,,CLR,0.02,VWS V13.01,2013-09-06 02:00:00,
2013-09-05 22:05:00,50.6,47.5,30.09,North,5,0.0,0.0,89,0.00,,CLR,0.02,VWS V13.01,2013-09-06 02:05:00,
2013-09-05 22:10:00,50.6,48.1,30.09,North,5,0.0,0.0,91,0.00,,CLR,0.02,VWS V13.01,2013-09-06 02:10:00,
2013-09-05 22:15:00,50.5,48.0,30.09,North,5,0.0,0.0,91,0.00,,CLR,0.02,VWS V13.01,2013-09-06 02:15:00,
2013-09-05 22:21:00,50.5,48.0,30.09,North,5,0.0,0.0,91,0.00,,CLR,0.02,VWS V13.01,2013-09-06 02:21:00,
2013-09-05 22:26:00,50.3,47.8,30.09,North,5,0.0,0.0,91,0.00,,CLR,0.02,VWS V13.01,2013-09-06 02:26:00,
2013-09-05 22:31:00,50.2,47.7,30.09,North,5,0.0,0.0,91,0.00,,CLR,0.02,VWS V13.01,2013-09-06 02:31:00,
2013-09-05 22:36:00,50.1,47.6,30.09,North,5,0.0,0.0,91,0.00,,CLR,0.02,VWS V13.01,2013-09-06 02:36:00,
2013-09-05 22:41:00,49.9,47.7,30.10,North,5,0.0,0.0,92,0.00,,CLR,0.02,VWS V13.01,2013-09-06 02:41:00,
2013-09-05 22:46:00,49.8,47.6,30.10,North,5,0.0,0.0,92,0.00,,CLR,0.02,VWS V13.01,2013-09-06 02:46:00,
2013-09-05 22:51:00,49.7,47.5,30.10,North,5,0.0,0.0,92,0.00,,CLR,0.02,VWS V13.01,2013-09-06 02:51:00,
2013-09-05 22:56:00,49.7,47.5,30.10,North,5,0.0,0.0,92,0.00,,CLR,0.02,VWS V13.01,2013-09-06 02:56:00,
2013-09-05 23:01:00,49.6,47.7,30.10,North,5,0.0,0.0,93,0.00,,CLR,0.02,VWS V13.01,2013-09-06 03:01:00,
2013-09-05 23:06:00,49.5,47.6,30.11,North,5,0.0,0.0,93,0.00,,CLR,0.02,VWS V13.01,2013-09-06 03:06:00,
2013-09-05 23:11:00,49.3,47.4,30.11,North,5,0.0,0.0,93,0.00,,CLR,0.02,VWS V13.01,2013-09-06 03:11:00,
2013-09-05 23:16:00,49.1,47.2,30.11,North,5,0.0,0.0,93,0.00,,CLR,0.02,VWS V13.01,2013-09-06 03:16:00,
2013-09-05 23:21:00,49.0,47.1,30.11,North,5,0.0,0.0,93,0.00,,CLR,0.02,VWS V13.01,2013-09-06 03:21:00,
2013-09-05 23:26:00,48.9,47.0,30.11,North,5,0.0,0.0,93,0.00,,CLR,0.02,VWS V13.01,2013-09-06 03:26:00,
2013-09-05 23:31:00,48.8,46.9,30.11,North,5,0.0,0.0,93,0.00,,CLR,0.02,VWS V13.01,2013-09-06 03:31:00,
2013-09-05 23:37:00,48.7,46.8,30.11,North,5,0.0,0.0,93,0.00,,CLR,0.02,VWS V13.01,2013-09-06 03:37:00,
2013-09-05 23:42:00,48.7,46.8,30.12,North,5,0.0,0.0,93,0.00,,CLR,0.02,VWS V13.01,2013-09-06 03:42:00,
2013-09-05 23:47:00,48.6,46.7,30.12,North,5,0.0,0.0,93,0.00,,CLR,0.02,VWS V13.01,2013-09-06 03:47:00,
2013-09-05 23:52:00,48.7,46.8,30.12,North,5,0.0,0.0,93,0.00,,CLR,0.02,VWS V13.01,2013-09-06 03:52:00,
2013-09-05 23:57:00,48.6,46.7,30.12,North,5,0.0,0.0,93,0.00,,CLR,0.02,VWS V13.01,2013-09-06 03:57:00,